VIV101 KJFK-MMMX

Flight info

Callsign VIV101
Flight time N/A
Altitude 36000
Route RBV Q430 COPES Q75 GVE DCT LYH DCT COLZI DCT AWYAT DCT IPTAY DCT CHOPZ DCT MGM DCT SJI DCT TBD M575 KENGS M345 AXEXO UM345 PAZ UT154 ENAGA ENAGA3A
Aircraft A20N/M-SDE2E3FGHIRWXY/S

Departure

Time N/A
Airport John F. Kennedy International Airport (KJFK)

Arrival

Time 2026-05-06 01:40
Airport Mexico City Benito Juárez International Airport (MMMX)
Time Latitude Longitude Altitude Speed Heading
2026-05-06 00:23 25.65504 -94.36746 35897 ft 429 kts 217°
2026-05-06 00:23 25.62952 -94.38436 35897 ft 430 kts 217°
2026-05-06 00:24 25.57822 -94.41832 35896 ft 430 kts 217°
2026-05-06 00:24 25.52659 -94.45244 35893 ft 430 kts 217°
2026-05-06 00:25 25.47522 -94.48637 35895 ft 431 kts 217°
2026-05-06 00:25 25.42370 -94.52036 35895 ft 432 kts 217°
2026-05-06 00:26 25.37202 -94.55444 35893 ft 432 kts 217°
2026-05-06 00:26 25.32070 -94.58820 35895 ft 432 kts 216°
2026-05-06 00:27 25.26837 -94.62132 35898 ft 433 kts 215°
2026-05-06 00:27 25.21604 -94.65419 35902 ft 434 kts 214°
2026-05-06 00:28 25.16344 -94.68726 35901 ft 434 kts 215°
2026-05-06 00:28 25.11094 -94.72028 35903 ft 434 kts 215°
2026-05-06 00:29 25.05854 -94.75326 35905 ft 434 kts 214°
2026-05-06 00:29 25.00585 -94.78637 35903 ft 435 kts 215°
2026-05-06 00:30 24.95322 -94.81943 35905 ft 435 kts 214°
2026-05-06 00:30 24.90061 -94.85242 35904 ft 435 kts 214°
2026-05-06 00:31 24.84762 -94.88563 35898 ft 436 kts 214°
2026-05-06 00:31 24.79497 -94.91867 35898 ft 437 kts 214°
2026-05-06 00:32 24.74216 -94.95187 35897 ft 436 kts 215°
2026-05-06 00:32 24.68916 -94.98517 35893 ft 436 kts 215°
2026-05-06 00:33 24.63645 -95.01827 35879 ft 437 kts 215°
2026-05-06 00:33 24.58364 -95.05141 35873 ft 438 kts 215°
2026-05-06 00:34 24.53060 -95.08464 35872 ft 438 kts 215°
2026-05-06 00:34 24.47780 -95.11771 35876 ft 437 kts 215°
2026-05-06 00:35 24.42492 -95.15069 35873 ft 438 kts 215°
2026-05-06 00:35 24.37173 -95.18372 35871 ft 438 kts 215°
2026-05-06 00:36 24.31887 -95.21658 35875 ft 437 kts 215°
2026-05-06 00:36 24.26569 -95.24958 35872 ft 439 kts 215°
2026-05-06 00:37 24.21282 -95.28239 35873 ft 438 kts 215°
2026-05-06 00:37 24.15959 -95.31541 35875 ft 438 kts 215°
2026-05-06 00:38 24.10676 -95.34813 35873 ft 438 kts 215°
2026-05-06 00:38 24.05373 -95.38098 35874 ft 439 kts 215°
2026-05-06 00:39 24.00027 -95.41402 35877 ft 438 kts 215°
2026-05-06 00:39 23.94713 -95.44685 35879 ft 438 kts 215°
2026-05-06 00:40 23.89418 -95.47955 35878 ft 437 kts 215°
2026-05-06 00:40 23.84120 -95.51221 35879 ft 437 kts 215°
2026-05-06 00:41 23.78802 -95.54500 35878 ft 437 kts 214°
2026-05-06 00:41 23.73494 -95.57768 35878 ft 437 kts 214°
2026-05-06 00:42 23.68200 -95.61025 35878 ft 437 kts 214°
2026-05-06 00:42 23.62868 -95.64297 35879 ft 437 kts 214°
2026-05-06 00:43 23.57535 -95.67564 35879 ft 437 kts 214°
2026-05-06 00:43 23.52209 -95.70828 35879 ft 438 kts 213°
2026-05-06 00:44 23.46923 -95.74062 35878 ft 437 kts 213°
2026-05-06 00:44 23.41581 -95.77330 35879 ft 438 kts 213°
2026-05-06 00:45 23.36276 -95.80570 35880 ft 437 kts 213°
2026-05-06 00:45 23.30967 -95.83814 35880 ft 438 kts 213°
2026-05-06 00:46 23.25661 -95.87051 35881 ft 437 kts 213°
2026-05-06 00:46 23.20348 -95.90289 35880 ft 437 kts 213°
2026-05-06 00:47 23.15052 -95.93516 35879 ft 437 kts 213°
2026-05-06 00:47 23.09727 -95.96762 35878 ft 437 kts 213°
2026-05-06 00:48 23.04432 -95.99985 35878 ft 437 kts 213°
2026-05-06 00:48 22.99096 -96.03219 35878 ft 437 kts 213°
2026-05-06 00:49 22.93774 -96.06445 35878 ft 438 kts 213°
2026-05-06 00:49 22.88453 -96.09669 35873 ft 437 kts 212°
2026-05-06 00:50 22.83143 -96.12881 35866 ft 437 kts 213°
2026-05-06 00:50 22.77852 -96.16080 35858 ft 436 kts 213°
2026-05-06 00:51 22.72546 -96.19288 35857 ft 436 kts 213°
2026-05-06 00:51 22.67264 -96.22478 35858 ft 436 kts 213°
2026-05-06 00:52 22.61983 -96.25666 35857 ft 435 kts 212°
2026-05-06 00:52 22.56674 -96.28865 35858 ft 436 kts 212°
2026-05-06 00:53 22.51378 -96.32054 35857 ft 436 kts 212°
2026-05-06 00:53 22.46082 -96.35242 35859 ft 436 kts 212°
2026-05-06 00:54 22.40770 -96.38434 35860 ft 435 kts 212°
2026-05-06 00:54 22.35473 -96.41617 35862 ft 435 kts 212°
2026-05-06 00:55 22.30202 -96.44782 35865 ft 435 kts 212°
2026-05-06 00:55 22.24893 -96.47966 35868 ft 436 kts 212°
2026-05-06 00:56 22.19595 -96.51143 35869 ft 436 kts 212°
2026-05-06 00:56 22.14275 -96.54326 35868 ft 436 kts 212°
2026-05-06 00:57 22.08959 -96.57502 35868 ft 436 kts 212°
2026-05-06 00:57 22.03669 -96.60664 35867 ft 437 kts 212°
2026-05-06 00:58 21.98324 -96.63854 35871 ft 437 kts 212°
2026-05-06 00:58 21.92986 -96.67041 35877 ft 438 kts 212°
2026-05-06 00:59 21.87678 -96.70209 35876 ft 437 kts 211°
2026-05-06 00:59 21.82320 -96.73400 35877 ft 437 kts 211°
2026-05-06 01:00 21.76970 -96.76587 35875 ft 438 kts 211°
2026-05-06 01:00 21.71653 -96.79751 35873 ft 438 kts 211°
2026-05-06 01:01 21.66323 -96.82917 35873 ft 439 kts 211°
2026-05-06 01:01 21.60959 -96.86099 35871 ft 439 kts 211°
2026-05-06 01:02 21.55605 -96.89275 35870 ft 438 kts 211°
2026-05-06 01:02 21.50281 -96.92429 35868 ft 438 kts 211°
2026-05-06 01:03 21.44922 -96.95597 35861 ft 438 kts 211°
2026-05-06 01:03 21.39589 -96.98748 35853 ft 439 kts 210°
2026-05-06 01:04 21.34231 -97.01914 35849 ft 438 kts 210°
2026-05-06 01:04 21.28871 -97.05076 35850 ft 438 kts 210°
2026-05-06 01:05 21.23544 -97.08218 35846 ft 438 kts 210°
2026-05-06 01:05 21.18199 -97.11370 35845 ft 437 kts 210°
2026-05-06 01:06 21.12863 -97.14512 35849 ft 437 kts 210°
2026-05-06 01:06 21.07523 -97.17656 35857 ft 437 kts 210°
2026-05-06 01:07 21.02192 -97.20792 35855 ft 437 kts 210°
2026-05-06 01:07 20.96850 -97.23930 35861 ft 438 kts 210°
2026-05-06 01:08 20.91503 -97.27070 35862 ft 438 kts 210°
2026-05-06 01:08 20.86139 -97.30217 35873 ft 438 kts 210°
2026-05-06 01:09 20.80793 -97.33350 35881 ft 438 kts 210°
2026-05-06 01:09 20.75444 -97.36487 35891 ft 438 kts 210°
2026-05-06 01:10 20.70106 -97.39610 35888 ft 438 kts 210°
2026-05-06 01:10 20.64827 -97.42874 35893 ft 438 kts 214°
2026-05-06 01:11 20.59923 -97.46754 35900 ft 437 kts 221°
2026-05-06 01:11 20.55509 -97.51251 35903 ft 437 kts 229°
2026-05-06 01:12 20.51562 -97.56155 35916 ft 438 kts 231°
2026-05-06 01:12 20.47644 -97.61127 35934 ft 437 kts 231°
2026-05-06 01:13 20.43719 -97.66090 35954 ft 437 kts 230°
2026-05-06 01:13 20.39789 -97.71046 35964 ft 437 kts 230°
2026-05-06 01:14 20.33873 -97.78500 36019 ft 439 kts 230°
2026-05-06 01:14 20.29912 -97.83486 36071 ft 441 kts 230°
2026-05-06 01:15 20.25942 -97.88478 36102 ft 442 kts 230°
2026-05-06 01:15 20.21983 -97.93452 36176 ft 442 kts 230°
2026-05-06 01:16 20.18005 -97.98447 36252 ft 441 kts 230°
2026-05-06 01:16 20.14042 -98.03417 36332 ft 441 kts 230°
2026-05-06 01:17 20.10064 -98.08393 36362 ft 441 kts 230°
2026-05-06 01:17 20.06082 -98.13368 36103 ft 441 kts 230°
2026-05-06 01:18 20.04236 -98.15932 35132 ft 448 kts 237°
2026-05-06 01:18 20.02668 -98.18821 34051 ft 455 kts 244°
2026-05-06 01:18 20.01464 -98.21934 33109 ft 457 kts 252°
2026-05-06 01:18 20.00646 -98.25187 32575 ft 451 kts 257°
2026-05-06 01:19 19.99994 -98.28401 32227 ft 443 kts 258°
2026-05-06 01:19 19.99375 -98.31551 31892 ft 434 kts 258°
2026-05-06 01:19 19.98763 -98.34655 31560 ft 426 kts 258°
2026-05-06 01:19 19.98154 -98.37717 31347 ft 415 kts 258°
2026-05-06 01:20 19.97563 -98.40668 31153 ft 404 kts 258°
2026-05-06 01:20 19.96989 -98.43523 30962 ft 394 kts 258°
2026-05-06 01:20 19.96420 -98.46342 30775 ft 384 kts 258°
2026-05-06 01:20 19.95865 -98.49088 30616 ft 373 kts 258°
2026-05-06 01:21 19.94800 -98.54342 30528 ft 362 kts 259°
2026-05-06 01:21 19.93734 -98.59601 29918 ft 366 kts 259°
2026-05-06 01:22 19.93203 -98.62209 29438 ft 366 kts 259°
2026-05-06 01:22 19.92665 -98.64850 28990 ft 364 kts 259°
2026-05-06 01:22 19.92124 -98.67505 28552 ft 362 kts 259°
2026-05-06 01:22 19.91594 -98.70110 28117 ft 360 kts 259°
2026-05-06 01:23 19.91071 -98.72696 27679 ft 358 kts 260°
2026-05-06 01:23 19.90665 -98.75288 27236 ft 356 kts 264°
2026-05-06 01:23 19.90368 -98.77891 26787 ft 355 kts 265°
2026-05-06 01:23 19.90089 -98.80458 26347 ft 353 kts 265°
2026-05-06 01:24 19.89805 -98.83057 25896 ft 352 kts 265°
2026-05-06 01:24 19.89521 -98.85634 25444 ft 351 kts 265°
2026-05-06 01:24 19.89248 -98.88227 24995 ft 350 kts 267°
2026-05-06 01:24 19.89136 -98.90794 24557 ft 347 kts 272°
2026-05-06 01:25 19.89220 -98.93331 24128 ft 345 kts 276°
2026-05-06 01:25 19.89389 -98.95857 23705 ft 343 kts 276°
2026-05-06 01:25 19.89566 -98.98357 23281 ft 342 kts 276°
2026-05-06 01:25 19.89743 -99.00899 22854 ft 341 kts 276°
2026-05-06 01:26 19.89915 -99.03381 22440 ft 340 kts 276°
2026-05-06 01:26 19.90087 -99.05906 22024 ft 339 kts 276°
2026-05-06 01:26 19.90255 -99.08366 21625 ft 338 kts 276°
2026-05-06 01:26 19.90423 -99.10857 21223 ft 338 kts 276°
2026-05-06 01:27 19.90590 -99.13344 20812 ft 338 kts 276°
2026-05-06 01:27 19.90757 -99.15836 20398 ft 337 kts 276°
2026-05-06 01:27 19.90922 -99.18308 19988 ft 337 kts 275°
2026-05-06 01:27 19.91086 -99.20779 19581 ft 337 kts 275°
2026-05-06 01:28 19.91250 -99.23273 19177 ft 336 kts 275°
2026-05-06 01:28 19.91412 -99.25742 18784 ft 336 kts 275°
2026-05-06 01:28 19.91500 -99.28210 18521 ft 330 kts 264°
2026-05-06 01:28 19.90803 -99.30454 18327 ft 318 kts 234°
2026-05-06 01:29 19.89314 -99.32094 18169 ft 304 kts 210°
2026-05-06 01:29 19.87429 -99.32977 18002 ft 289 kts 188°
2026-05-06 01:29 19.85462 -99.33089 17733 ft 280 kts 169°
2026-05-06 01:29 19.83541 -99.32780 17435 ft 277 kts 167°
2026-05-06 01:30 19.81654 -99.32447 17238 ft 270 kts 168°
2026-05-06 01:30 19.79823 -99.32137 17089 ft 262 kts 168°
2026-05-06 01:30 19.78033 -99.31847 16934 ft 254 kts 168°
2026-05-06 01:30 19.76281 -99.31572 16683 ft 251 kts 168°
2026-05-06 01:31 19.74568 -99.31306 16370 ft 250 kts 169°
2026-05-06 01:31 19.72839 -99.31040 16050 ft 250 kts 169°
2026-05-06 01:31 19.71098 -99.30776 15731 ft 250 kts 169°
2026-05-06 01:31 19.69387 -99.30516 15412 ft 250 kts 169°
2026-05-06 01:32 19.67660 -99.30255 15098 ft 249 kts 169°
2026-05-06 01:32 19.65936 -99.29995 14784 ft 249 kts 170°
2026-05-06 01:32 19.64209 -99.29736 14472 ft 249 kts 170°
2026-05-06 01:32 19.62499 -99.29477 14173 ft 248 kts 170°
2026-05-06 01:33 19.60789 -99.29198 13875 ft 246 kts 164°
2026-05-06 01:33 19.59209 -99.28571 13559 ft 243 kts 148°
2026-05-06 01:33 19.57792 -99.27563 13240 ft 242 kts 142°
2026-05-06 01:33 19.56457 -99.26503 12927 ft 242 kts 141°
2026-05-06 01:34 19.55102 -99.25421 12683 ft 237 kts 141°
2026-05-06 01:34 19.53800 -99.24392 12532 ft 229 kts 142°
2026-05-06 01:34 19.52408 -99.23611 12334 ft 225 kts 165°
2026-05-06 01:34 19.50854 -99.23410 12193 ft 224 kts 178°
2026-05-06 01:35 19.49299 -99.23395 11991 ft 224 kts 180°
2026-05-06 01:35 19.47741 -99.23398 11727 ft 222 kts 180°
2026-05-06 01:35 19.46202 -99.23390 11450 ft 221 kts 179°
2026-05-06 01:35 19.44656 -99.23373 11166 ft 220 kts 179°
2026-05-06 01:36 19.43131 -99.23350 10891 ft 219 kts 179°
2026-05-06 01:36 19.41614 -99.23325 10630 ft 217 kts 179°
2026-05-06 01:36 19.40104 -99.23241 10405 ft 216 kts 167°
2026-05-06 01:36 19.38719 -99.22636 10259 ft 216 kts 143°
2026-05-06 01:37 19.37686 -99.21493 9963 ft 214 kts 118°
2026-05-06 01:37 19.37183 -99.20038 9662 ft 212 kts 96°
2026-05-06 01:37 19.37252 -99.18475 9355 ft 210 kts 73°
2026-05-06 01:37 19.37848 -99.17086 9102 ft 208 kts 58°
2026-05-06 01:38 19.38617 -99.15783 9064 ft 209 kts 57°
2026-05-06 01:38 19.39381 -99.14521 8901 ft 199 kts 58°
2026-05-06 01:38 19.40103 -99.13250 8445 ft 200 kts 59°
2026-05-06 01:38 19.40782 -99.12022 8195 ft 187 kts 59°
2026-05-06 01:39 19.41424 -99.10873 7927 ft 174 kts 59°
2026-05-06 01:39 19.42017 -99.09815 7681 ft 162 kts 59°
2026-05-06 01:39 19.42569 -99.08821 7441 ft 153 kts 59°
2026-05-06 01:39 19.43110 -99.07855 7349 ft 143 kts 59°
2026-05-06 01:40 19.43532 -99.07104 7341 ft 93 kts 59°
2026-05-06 01:40 19.43773 -99.06677 7339 ft 42 kts 60°
2026-05-06 01:40 19.43913 -99.06423 7337 ft 37 kts 63°
2026-05-06 01:40 19.43969 -99.06194 7335 ft 19 kts 88°
2026-05-06 01:41 19.43955 -99.06082 7334 ft 13 kts 144°
2026-05-06 01:41 19.43910 -99.06094 7334 ft 0 kts 226°
2026-05-06 01:41 19.43908 -99.06097 7334 ft 0 kts 229°
2026-05-06 01:42 19.43903 -99.06104 7334 ft 1 kts 234°
2026-05-06 01:42 19.43896 -99.06114 7334 ft 1 kts 237°
2026-05-06 01:42 19.43885 -99.06133 7335 ft 4 kts 241°
2026-05-06 01:42 19.43864 -99.06175 7335 ft 8 kts 239°
2026-05-06 01:43 19.43827 -99.06239 7335 ft 11 kts 239°
2026-05-06 01:43 19.43781 -99.06322 7336 ft 14 kts 239°
2026-05-06 01:43 19.43725 -99.06420 7337 ft 16 kts 239°
2026-05-06 01:43 19.43661 -99.06533 7338 ft 18 kts 239°
2026-05-06 01:44 19.43592 -99.06656 7338 ft 20 kts 234°
2026-05-06 01:44 19.43480 -99.06741 7339 ft 19 kts 207°
2026-05-06 01:44 19.43376 -99.06802 7339 ft 13 kts 206°
2026-05-06 01:44 19.43307 -99.06868 7339 ft 13 kts 237°
2026-05-06 01:45 19.43259 -99.06950 7340 ft 13 kts 239°
2026-05-06 01:45 19.43216 -99.07040 7340 ft 13 kts 245°
2026-05-06 01:45 19.43187 -99.07134 7341 ft 13 kts 246°
2026-05-06 01:45 19.43142 -99.07224 7341 ft 13 kts 238°
2026-05-06 01:46 19.43090 -99.07312 7342 ft 14 kts 238°
2026-05-06 01:46 19.43038 -99.07400 7343 ft 14 kts 238°
2026-05-06 01:46 19.42988 -99.07490 7344 ft 14 kts 241°
2026-05-06 01:46 19.42932 -99.07594 7345 ft 18 kts 240°
2026-05-06 01:47 19.42871 -99.07710 7346 ft 17 kts 239°
2026-05-06 01:47 19.42811 -99.07819 7346 ft 15 kts 240°
2026-05-06 01:47 19.42764 -99.07877 7346 ft 10 kts 188°
2026-05-06 01:47 19.42699 -99.07850 7346 ft 10 kts 147°
2026-05-06 01:48 19.42633 -99.07806 7345 ft 11 kts 148°
2026-05-06 01:48 19.42561 -99.07763 7345 ft 11 kts 158°
2026-05-06 01:48 19.42493 -99.07781 7345 ft 8 kts 211°
2026-05-06 01:48 19.42460 -99.07804 7345 ft 3 kts 214°
2026-05-06 01:49 19.42458 -99.07806 7345 ft 0 kts 214°